Home   Weather   Clearwater   Past weeks

Flag for USA Past Weather in Clearwater, Florida, USA — Yesterday and Last 2 Weeks

Now
82 °F

Sunny.


Feels Like: 83 °F
Forecast: 65 / 81 °F
Wind: 7 mph from Southeast

Location: St. Petersburg / Clearwater International Airport

Current Time: Dec 4, 2016 at 5:25:58 pm

Latest Report: Dec 4, 2016 at 4:53 pm


Visibility: 10 mi

Pressure: 29.98 "Hg

Humidity: 53%

Dew Point: 63 °F

Location of ClearwaterLocation

Past Weather in Clearwater — Graph

°F

Clearwater Temperature Yesterday

Maximum temperature yesterday: 78 °F (at 2:53 pm)
Minimum temperature yesterday: 59 °F (at 5:53 am)
Average temperature yesterday: 67 °F

High & Low Weather Summary for the Past Weeks

 TemperatureHumidityPressure
High83 °F (Dec 4, 2:53 pm)97% (Nov 19, 8:53 pm)30.27 "Hg (Nov 19, 8:53 pm)
Low49 °F (Nov 20, 6:53 am)17% (Nov 20, 2:53 pm)29.92 "Hg (Nov 29, 2:53 am)
Average68 °F67%30.10 "Hg
* Reported Nov 19 3:53 pm — Dec 4 3:53 pm, Clearwater, Weather by CustomWeather, © 2016

Note: Actual official high and low records may vary slightly from our data, if they occured in-between our weather recording intervals... More about our weather records

Advertising

Clearwater Weather History for the Previous 24 Hours

Scroll right to see more
 ConditionsComfort  
Time TempWeatherWind HumidityBarometerVisibility
3:53 pm
Sun, Dec 4
83 °FSunny.9 mph51%29.98 "Hg10 mi
2:53 pm83 °FSunny.12 mph51%29.98 "Hg10 mi
1:53 pm82 °FSunny.10 mph53%30.00 "Hg10 mi
12:53 pm81 °FSunny.16 mph54%30.02 "Hg10 mi
11:53 am80 °FSunny.14 mph54%30.05 "Hg10 mi
10:53 am78 °FSunny.17 mph58%30.07 "Hg10 mi
9:53 am74 °FSunny.20 mph64%30.06 "Hg10 mi
8:53 am71 °FSunny.15 mph71%30.06 "Hg10 mi
7:53 am67 °FSunny.13 mph81%30.06 "Hg10 mi
6:53 am66 °FClear.9 mph81%30.05 "Hg10 mi
5:53 am66 °FClear.9 mph81%30.04 "Hg10 mi
4:53 am66 °FClear.8 mph81%30.04 "Hg10 mi
3:53 am66 °FClear.8 mph81%30.06 "Hg10 mi
2:53 am66 °FClear.6 mph81%30.07 "Hg10 mi
1:53 am66 °FClear.7 mph81%30.08 "Hg10 mi
12:53 am67 °FClear.9 mph79%30.08 "Hg10 mi
11:53 pm
Sat, Dec 3
67 °FClear.9 mph79%30.10 "Hg10 mi
10:53 pm68 °FClear.10 mph73%30.10 "Hg10 mi
9:53 pm69 °FClear.10 mph70%30.11 "Hg10 mi
8:53 pm70 °FClear.12 mph68%30.10 "Hg10 mi
7:53 pm71 °FClear.9 mph68%30.09 "Hg10 mi
6:53 pm70 °FClear.5 mph79%30.07 "Hg10 mi
5:53 pm72 °FClear.5 mph71%30.06 "Hg10 mi
Weather by CustomWeather, © 2016

See weather overviewHow to use our weather pages